ZHUHAI-1 02 (CAS 4B) (42759 NORAD) Tracking and Keplerian Element Data

This shows tracking and keplerian element data for the satellite.

Feedback or suggestion? Click here.




ElementValue
Catalog42759
NameZHUHAI-1 02 (CAS 4B)
Epoch Orbit7805
Epoch Day317.80915509
Epoch Year2018
RAAN341.8005
Inclination43.0198
Eccentricity0.0011274
Argument of Perigee322.1781
Mean Anonmoly20.4866
Mean Motion15.09418575
Decay Rate1.93E-06
L11 42759U 17034B 18317.80915509 .00000193 00000-0 25431-4 0 9991
L22 42759 43.0198 341.8005 0011274 322.1781 20.4866 15.09418575 78055

Live tracking and technical data element details for ZHUHAI-1 02 (CAS 4B) (NORAD 42759). ZHUHAI-1 02 (CAS 4B) can be tracked NOW for your location showing map with azimuth and elevation plus other details from your city location.

Track the satellite on the map from your city or location and see movement details for azimuth, elevation, latitude, longitude, range, height, and movement on the map or in text.







IsCatalogInMostPopularTable: catalog: 42759, numindb: 190
Update: records affected: 1



GetName: 42759 ZHUHAI-1 02 (CAS 4B)

Hit Count: updated at: Wed, 14 Nov 2018 16:07:12 GMT